Temp
25 24 24 24 24 24 24 24 24 24 24 24 24 24 24 24 24 24 24 24 25 25 25 25 24 24 25 25 25 25 25 25 25 25 25 24 23 22 23 23 22 22 21 21 21 21 21 21 21 20 20 20 20 20 20 20 20 20 20 20 21 21 21 21 21 20 20 20 20 20 20 20 20 20 20 21 20 20 20 20 20 20 20 20 20
25 24 24 24 24 24 24 24 24 24 24 25 24 24 24 24 24 24 24 24 24 24 24 24 24 24 25 25 25 25 25 26 26 26 25 24 23 23 23 23 22 22 21 21 21 21 21 21 21 21 20 20 20 20 20 20 20 20 20 20 20 20 21 21 20 20 20 20 20 20 20 20 20 20 20 20 20 20 20 20 20 20 20 20 20
24 24 24 24 24 24 24 24 25 24 24 25 24 24 24 24 24 24 24 24 24 24 24 24 24 25 25 25 25 25 26 26 26 27 26 25 24 23 22 22 22 22 22 21 21 21 21 21 21 21 21 21 21 21 20 20 21 20 20 20 20 20 20 20 20 20 20 20 20 20 20 20 20 20 20 20 20 20 20 20 20 20 20 20 20
24 23 24 24 24 24 24 24 24 24 24 24 24 24 24 23 23 23 23 24 24 24 24 24 24 25 25 25 25 25 26 26 26 27 26 25 24 23 23 22 22 22 22 21 21 21 21 21 21 21 21 21 21 21 21 21 21 20 20 20 20 20 20 20 20 20 20 20 20 20 19 19 20 20 20 20 20 20 20 20 20 20 20 19 20
23 23 23 24 24 24 24 24 24 24 24 23 23 23 24 24 23 23 23 24 24 24 24 24 24 24 25 25 25 25 25 26 27 26 26 25 24 24 23 22 22 22 22 22 22 21 21 21 21 21 21 21 21 21 21 21 20 20 20 20 20 20 20 20 20 20 20 20 20 20 20 20 20 19 19 19 20 20 20 20 20 20 20 20 20
23 23 23 24 24 24 24 25 24 24 24 23 23 24 24 24 24 24 24 24 24 24 24 24 24 24 24 25 25 25 25 26 26 26 25 25 24 24 24 23 22 22 22 22 22 22 21 21 21 21 21 21 21 21 21 20 20 20 20 20 20 20 20 20 20 20 20 20 20 20 20 20 20 20 20 20 20 20 20 20 20 20 20 20 20
23 23 23 24 24 24 24 24 24 24 24 23 23 24 24 24 24 24 24 24 24 24 24 24 24 24 24 25 25 25 26 26 26 26 25 24 24 24 24 24 23 22 22 22 22 22 21 21 21 21 21 21 21 20 20 20 20 20 20 20 20 20 20 20 20 20 20 20 20 20 20 20 20 20 20 20 20 20 20 20 20 20 20 20 20
23 23 23 24 24 25 25 24 24 24 24 23 23 24 24 24 24 24 24 24 24 24 24 24 24 24 24 25 25 25 26 26 26 25 24 24 24 24 23 23 23 22 22 22 22 22 21 21 21 21 21 20 20 20 20 20 20 20 20 20 20 20 20 20 20 21 20 20 20 20 20 20 20 20 20 20 20 20 20 20 20 20 20 20 20
23 23 23 24 24 25 25 24 24 24 23 23 24 24 24 24 23 23 23 23 24 24 24 24 24 24 24 25 25 25 25 26 26 25 24 24 24 24 23 23 23 23 23 23 23 22 22 22 21 21 21 20 21 20 20 20 20 20 20 20 20 20 20 20 20 20 20 20 20 20 20 20 20 20 20 20 20 20 20 20 20 20 20 20 20
23 23 23 24 24 24 25 24 24 24 23 23 24 24 24 24 23 23 23 23 23 24 24 24 24 24 25 25 25 25 25 25 25 24 24 24 24 24 23 23 23 23 23 23 23 23 22 22 22 21 21 20 21 21 21 20 20 20 20 20 20 20 20 20 20 20 20 20 20 20 20 20 20 20 20 20 20 20 20 20 20 20 20 20 20
23 23 23 24 24 24 24 24 24 24 23 24 24 24 24 23 23 23 23 23 23 23 24 24 25 25 25 25 24 24 25 25 24 24 24 24 24 24 24 24 23 23 23 23 23 22 22 22 22 21 21 21 21 21 21 21 21 20 20 20 20 20 20 20 20 20 20 20 20 20 20 20 19 20 20 20 20 20 20 20 20 20 19 19 19
23 23 23 23 24 24 24 24 24 24 23 24 24 24 24 23 23 23 23 23 23 23 24 24 25 25 24 24 24 24 24 24 24 24 24 24 24 24 25 24 24 24 23 23 23 22 22 22 22 22 21 21 21 21 20 21 21 21 20 20 20 20 19 19 19 19 19 19 19 19 19 19 19 19 19 19 20 20 19 19 19 19 19 19 19
23 23 23 23 23 24 24 24 24 24 24 24 24 24 23 23 23 23 23 23 23 24 24 24 24 24 24 24 24 24 25 24 24 25 25 24 24 24 24 25 25 24 24 23 23 22 22 22 22 22 21 21 21 21 20 20 20 20 20 20 20 20 19 19 19 19 19 19 19 19 19 19 19 19 19 19 19 19 19 19 19 19 19 19 19
23 23 23 23 23 24 24 24 24 24 23 23 23 23 23 23 23 23 23 24 24 24 24 24 25 25 25 25 25 25 25 24 25 25 25 25 24 24 24 25 25 24 24 23 23 23 23 22 22 22 21 21 21 21 21 21 20 20 20 20 20 20 20 19 19 19 19 19 19 19 19 19 19 19 19 19 19 19 19 19 19 19 19 19 19
24 23 23 24 24 24 24 24 24 24 23 23 23 23 23 23 23 24 24 24 24 24 23 24 25 25 25 25 26 25 24 25 25 25 25 25 25 24 24 24 24 24 24 24 23 23 23 22 22 21 21 21 21 21 21 21 21 20 20 20 20 20 20 19 19 19 19 19 19 19 19 19 19 19 19 19 19 19 19 19 19 19 19 19 19
24 24 24 24 24 24 24 24 24 23 23 23 23 23 23 23 24 24 24 24 25 24 24 24 25 25 25 25 26 26 25 25 26 25 25 25 25 25 24 24 24 24 24 24 24 23 23 22 22 21 21 21 21 21 21 21 21 21 21 21 20 20 20 20 20 20 20 20 20 20 20 20 20 20 20 20 20 20 20 20 20 20 20 20 20
24 24 24 24 24 24 24 24 24 24 24 24 24 24 23 24 24 24 24 24 25 25 24 24 24 24 25 25 25 25 26 26 26 25 25 25 25 25 24 24 24 23 24 24 23 23 23 22 22 21 21 21 22 21 21 21 21 21 21 21 21 21 20 20 20 20 20 20 20 20 20 20 20 20 20 20 20 20 20 20 20 20 20 20 20
24 24 24 24 24 24 24 24 24 24 24 24 24 24 24 24 24 24 24 24 24 25 25 24 24 24 24 25 25 25 26 26 25 25 25 25 25 25 24 24 24 24 23 24 24 24 23 23 22 22 22 22 22 22 21 21 21 21 21 21 21 21 21 21 21 21 21 21 21 21 21 20 20 20 20 20 20 20 20 20 20 20 20 20 21
25 24 24 24 24 24 24 24 24 24 24 24 24 24 24 24 24 24 24 24 23 24 25 24 24 23 24 24 24 25 25 25 25 25 25 25 25 25 25 24 24 24 24 24 24 24 24 23 23 22 22 22 22 22 22 21 21 21 21 21 21 21 21 21 21 21 21 21 21 21 21 20 20 20 20 20 20 20 20 20 20 20 20 20 20
25 25 24 24 24 24 24 24 24 24 24 24 24 24 24 24 24 24 24 23 23 24 25 25 24 24 24 24 25 25 24 25 25 25 25 25 25 25 25 25 24 24 24 24 25 25 24 23 23 23 22 22 21 22 22 21 21 21 21 21 21 21 21 21 20 21 20 20 20 20 20 20 20 20 20 20 20 20 20 20 20 20 20 20 20
25 25 24 24 24 24 24 24 24 24 24 24 24 24 24 24 23 23 23 23 23 23 24 24 25 25 24 24 24 24 24 25 25 25 25 25 25 25 26 25 25 25 24 24 25 24 24 24 23 23 23 22 22 22 22 22 21 21 21 21 21 21 21 21 20 20 20 20 20 20 20 20 20 20 20 20 19 19 20 19 19 19 19 20 20
25 25 24 24 24 24 24 24 24 24 24 24 24 24 24 24 23 23 23 23 23 23 24 24 24 25 24 24 24 24 24 25 25 25 25 25 25 26 27 26 25 25 24 24 24 24 24 24 23 23 23 23 22 22 22 22 21 21 21 21 21 21 21 21 21 21 20 20 20 20 20 20 20 20 20 20 20 19 19 19 19 19 19 19 19
25 25 25 24 25 24 24 25 24 24 24 24 24 24 24 24 24 23 23 23 23 23 23 24 24 24 24 24 24 24 25 25 25 25 26 26 25 26 27 27 26 25 25 24 24 24 24 23 23 23 23 23 23 22 22 22 21 21 21 21 21 21 21 21 21 21 21 21 21 20 20 20 20 20 20 20 20 19 19 19 19 19 19 18 18
26 26 25 25 25 24 24 25 25 24 24 24 24 24 24 24 24 23 23 23 23 23 23 24 24 24 24 24 24 25 25 25 25 25 25 25 25 25 26 26 25 25 25 24 24 24 24 23 23 23 23 23 23 22 22 22 22 22 21 21 21 21 21 21 21 21 21 21 21 20 20 20 20 20 20 20 20 19 19 19 19 19 18 18 18
25 26 26 25 25 24 24 25 25 24 24 24 24 24 24 24 24 23 23 23 23 23 23 24 24 24 24 25 25 25 25 25 25 25 25 25 25 25 26 25 26 26 25 24 25 24 24 24 24 24 23 23 23 22 22 22 22 22 22 21 22 22 21 21 21 21 21 21 21 21 21 20 20 20 20 20 20 20 20 20 19 19 19 19 19
26 26 26 26 25 25 24 24 24 24 24 24 24 24 24 24 24 24 24 24 23 23 23 23 24 24 24 25 25 25 25 25 25 25 25 25 25 25 25 25 26 26 25 24 24 24 25 24 24 24 23 23 23 22 22 22 22 22 22 22 22 22 22 22 21 21 21 21 21 21 21 21 21 20 20 20 20 20 20 20 20 20 19 19 19
26 26 25 25 25 25 24 24 24 24 24 24 24 24 24 24 24 24 24 24 24 23 23 23 24 24 24 24 24 25 25 25 25 25 25 25 25 25 25 25 25 26 25 24 24 24 24 24 24 24 23 22 22 22 22 22 22 22 22 22 22 22 22 22 21 21 21 21 21 21 21 21 21 21 21 21 21 21 20 20 20 20 20 20 19
26 26 25 25 25 25 24 25 25 24 24 24 24 24 24 24 24 23 24 24 24 24 23 23 24 24 24 24 24 24 25 24 25 25 25 25 25 25 25 25 24 25 25 25 25 25 25 25 24 23 23 22 22 22 22 22 22 22 22 22 22 21 21 21 21 21 21 21 21 21 21 21 21 21 21 21 21 21 21 21 20 20 20 20 20
26 26 25 25 25 25 25 25 25 25 24 24 24 24 24 24 24 24 24 24 24 24 23 24 24 24 24 24 23 24 24 24 24 24 24 24 24 24 24 24 24 24 24 24 24 25 25 25 25 23 22 22 22 22 22 22 22 22 21 22 22 21 21 21 21 21 21 21 21 21 21 21 21 21 21 21 21 21 21 21 20 20 20 20 20
26 26 25 25 25 25 25 25 25 25 25 24 24 24 24 24 24 24 24 24 24 24 23 23 24 24 24 24 24 23 24 23 23 24 24 23 23 24 24 24 24 24 24 24 24 25 24 25 25 24 22 22 22 22 22 22 21 21 21 22 21 21 21 21 21 21 21 21 21 21 21 21 21 21 21 21 21 20 20 20 20 20 20 20 19
25 25 25 25 25 25 25 25 25 25 24 24 24 24 24 24 24 24 24 24 24 24 23 23 24 24 24 24 24 23 23 23 23 24 23 23 23 24 24 24 24 24 24 24 24 24 24 24 25 24 23 22 22 22 22 22 21 21 21 21 21 21 21 21 21 21 21 21 21 21 21 21 21 21 21 21 20 20 20 20 20 20 19 19 19
25 25 25 25 25 25 25 25 25 25 25 25 25 24 24 24 24 25 24 24 24 24 24 24 24 24 24 24 23 23 23 23 23 23 23 23 23 23 23 23 23 23 23 24 24 24 24 24 24 24 23 22 22 22 22 22 21 21 21 21 21 21 21 21 21 21 21 21 21 21 21 21 20 20 20 20 20 20 20 20 19 19 19 19 19
25 25 25 25 25 25 25 25 25 25 25 25 25 24 24 24 24 24 25 24 24 24 24 24 24 24 23 23 23 23 23 23 23 23 23 23 23 23 23 23 23 23 23 23 24 24 24 23 23 23 23 22 22 22 22 22 21 21 21 21 20 21 21 21 21 21 21 21 21 20 20 20 20 20 20 20 19 19 19 19 19 19 19 19 19
25 25 25 25 25 25 25 25 25 25 25 24 25 25 24 24 24 24 24 24 24 24 24 24 23 23 23 23 23 23 23 23 23 23 23 23 23 23 23 23 23 23 23 23 23 24 24 23 23 23 22 22 22 22 21 22 22 21 21 20 20 20 21 21 21 21 20 20 20 20 20 20 20 20 20 19 19 19 19 19 19 19 19 19 19
26 25 25 25 25 25 25 25 25 25 25 24 24 25 24 24 24 24 24 24 24 24 24 24 23 23 23 23 23 23 23 23 23 23 23 23 23 23 23 23 23 23 23 23 23 23 24 23 23 23 23 22 22 22 21 21 21 21 20 20 20 20 21 21 21 21 21 20 20 20 20 20 19 19 19 19 19 19 19 19 19 19 18 18 18
26 25 25 25 25 25 25 25 25 25 25 24 24 25 24 24 24 24 24 24 24 24 24 24 24 23 23 23 24 24 23 23 23 23 23 23 23 23 23 23 23 23 23 22 22 23 23 23 23 23 23 22 22 22 21 21 21 20 20 20 20 21 21 21 21 21 20 20 20 20 20 19 19 19 19 19 19 19 18 18 18 18 18 18 18
26 26 25 25 25 25 25 25 25 25 25 24 24 25 25 24 24 24 25 24 24 24 24 24 24 24 24 23 24 24 23 23 23 23 23 23 23 23 23 23 23 23 23 22 22 22 22 23 23 23 22 22 22 22 21 21 21 21 20 20 20 21 21 21 21 21 20 20 20 19 19 19 19 19 19 19 19 18 18 18 18 18 18 17 17
26 26 26 25 25 25 25 25 25 25 25 24 24 25 25 25 24 25 25 24 24 24 24 24 24 24 24 24 24 24 23 23 23 23 23 23 23 23 23 23 23 22 23 22 22 22 22 22 23 23 22 22 22 22 21 21 21 21 21 21 21 20 20 20 21 21 21 20 20 19 19 19 19 18 18 18 18 18 18 18 18 18 17 17 17
27 27 26 25 25 25 25 25 25 25 25 24 24 24 25 25 25 25 25 25 24 24 24 24 24 24 24 24 24 24 23 23 23 23 23 23 23 23 23 23 22 22 22 22 22 22 22 22 23 23 23 22 22 22 21 21 21 21 21 21 21 21 20 20 20 20 21 20 20 20 20 19 19 19 18 18 18 18 18 18 17 17 17 17 17
27 27 27 26 25 25 25 25 25 25 25 25 24 24 24 25 25 25 25 25 25 24 24 24 24 24 24 24 24 24 23 23 23 23 23 23 23 23 22 22 22 22 22 22 22 22 22 22 23 23 23 22 22 22 21 21 21 21 21 21 22 21 21 20 20 20 20 20 20 21 20 19 19 19 19 18 18 18 17 17 17 17 17 16 16
27 27 27 26 25 25 25 25 25 25 25 25 25 24 24 24 25 25 25 25 25 24 24 24 24 24 24 24 25 25 24 23 23 23 23 23 23 23 22 22 22 22 22 22 22 22 22 23 23 23 23 23 22 22 22 21 21 22 21 21 21 21 21 21 20 20 19 19 20 20 20 19 19 19 19 19 18 18 18 18 18 17 16 16 16
26 26 27 26 26 26 25 25 25 25 25 25 25 25 24 24 25 25 25 24 25 25 24 24 24 24 24 25 25 25 24 23 23 23 23 23 23 23 22 22 22 22 22 22 22 22 23 23 23 23 23 23 23 22 22 22 22 21 21 21 21 21 21 21 21 20 19 19 19 19 19 19 19 19 19 19 18 18 18 18 18 17 16 16 16
26 26 26 26 26 26 26 25 25 25 25 25 25 25 24 24 24 25 25 24 24 24 24 24 24 24 24 24 24 24 24 23 23 23 23 23 23 23 22 22 22 22 22 22 22 22 23 23 23 23 23 23 23 23 22 22 22 21 21 21 21 21 21 21 21 21 19 18 18 18 18 18 18 18 18 18 18 18 18 18 17 17 16 16 16
26 26 26 26 26 26 26 26 26 26 26 25 25 25 24 24 24 24 25 25 24 24 24 24 24 24 24 24 24 24 23 23 23 23 23 23 23 22 22 22 21 22 22 22 22 22 22 23 23 23 23 23 23 23 22 22 22 21 21 20 20 20 21 21 21 21 19 18 18 18 18 19 18 18 18 18 18 18 18 17 17 16 16 15 15
26 26 26 26 26 26 26 26 26 26 26 26 25 25 24 24 24 24 24 25 24 24 24 24 24 24 24 24 24 24 23 23 23 22 22 23 22 22 22 22 21 21 21 21 22 22 22 22 23 23 23 23 23 22 22 22 22 21 21 21 20 20 20 20 20 20 19 18 18 18 18 19 19 19 19 19 19 18 18 17 16 16 15 15 15
26 26 26 26 26 26 26 26 26 26 26 26 25 25 24 24 23 23 24 24 24 24 24 24 24 24 24 24 24 24 23 23 23 22 22 22 22 22 21 21 21 21 21 21 21 21 21 22 22 22 22 22 22 22 21 20 20 21 21 21 21 20 20 19 19 18 18 18 18 18 18 19 19 19 19 19 19 18 18 17 16 16 15 15 15
26 26 26 26 26 26 26 26 26 26 26 26 25 25 24 24 23 23 23 23 24 24 24 24 24 24 24 24 24 23 23 23 23 22 22 21 21 21 21 20 20 21 21 21 21 21 21 21 22 22 22 21 21 21 20 20 20 20 20 20 20 19 19 19 18 18 19 18 17 17 18 19 19 19 19 19 19 18 18 17 17 16 16 15 15
26 26 26 26 26 26 26 26 26 26 27 26 25 25 25 24 24 23 22 23 23 24 24 24 24 24 24 24 24 23 23 23 23 23 22 21 21 21 21 21 21 21 21 21 21 21 21 21 21 22 22 21 21 20 20 20 19 19 19 19 18 18 18 19 19 20 20 19 18 18 18 18 18 19 19 19 18 18 17 17 17 17 16 16 15
27 27 27 27 27 27 26 26 26 26 27 26 26 25 25 24 24 23 22 22 23 23 24 24 24 24 24 24 23 23 23 23 23 23 22 21 21 21 21 21 21 21 22 21 21 20 20 20 21 21 21 21 20 20 20 20 19 19 19 19 19 19 19 19 20 21 21 20 19 18 18 18 18 18 18 18 18 17 18 18 17 17 16 16 16
27 27 27 27 27 27 27 27 26 26 27 27 26 25 25 25 24 23 22 22 23 23 23 24 24 24 24 23 23 23 23 23 23 23 22 21 21 21 21 21 21 22 22 21 20 20 20 20 20 20 20 20 20 20 19 19 19 19 19 19 20 20 20 20 20 20 20 20 19 18 17 18 18 18 18 18 18 18 18 18 17 17 16 16 16
27 27 28 27 27 27 27 27 27 26 27 27 26 26 25 25 24 23 22 22 23 23 23 24 24 24 24 23 23 23 23 23 23 22 22 21 21 21 21 22 22 22 22 22 20 19 19 19 19 19 19 19 19 19 19 19 19 18 18 19 20 20 20 20 20 20 20 20 19 17 17 18 18 17 18 18 18 18 18 18 17 17 17 17 16
Height
861 861 862 862 863 863 863 863 863 863 863 863 863 863 863 863 864 863 864 864 863 863 863 863 864 864 863 863 863 863 863 862 862 862 861 862 863 863 864 864 865 866 867 868 869 870 870 871 871 872 873 873 874 875 876 876 877 877 877 877 878 878 879 879 879 880 880 881 881 881 881 881 882 882 882 882 883 883 883 882 882 882 882 882 882
861 861 862 862 863 863 863 863 863 863 863 863 863 863 863 863 863 864 864 864 863 863 863 863 864 864 863 863 862 862 862 861 861 861 861 862 862 863 863 864 865 866 866 867 868 869 870 870 871 871 872 872 873 874 875 876 876 876 876 877 878 878 878 878 879 880 880 881 881 881 881 881 881 882 882 882 883 883 883 883 883 882 882 882 882
860 861 861 862 862 863 863 863 863 863 863 863 863 863 863 863 863 863 864 864 864 863 863 863 863 863 863 863 862 862 861 861 860 860 860 861 862 863 863 864 865 865 866 867 868 868 869 869 870 870 871 871 872 873 874 874 875 875 876 877 877 877 878 879 879 880 881 881 881 881 881 881 882 882 882 882 882 882 882 883 883 883 882 882 882
860 860 861 861 862 862 862 863 863 863 863 863 863 863 863 863 863 863 864 864 864 863 863 863 863 863 862 862 862 861 861 860 860 860 860 861 862 863 863 864 865 865 866 866 867 868 868 869 869 870 870 870 871 871 872 873 873 874 875 876 876 877 877 878 879 879 880 880 880 881 881 881 882 882 882 882 882 882 882 882 882 882 882 882 882
859 860 860 861 861 862 862 862 862 862 863 863 862 863 863 863 863 863 863 864 863 863 863 862 862 862 862 862 861 861 861 860 860 860 861 861 862 863 863 864 865 865 866 866 867 867 868 869 869 869 869 869 869 870 871 871 872 873 874 875 875 876 876 877 878 878 878 879 879 880 880 881 881 881 881 882 882 882 881 881 881 881 881 881 881
859 859 860 860 861 861 861 861 862 862 862 862 862 862 862 863 863 863 863 863 863 862 862 862 862 862 862 861 861 861 861 860 860 860 861 862 862 862 863 864 864 865 866 866 866 867 868 868 869 869 869 868 868 869 870 870 871 872 873 873 874 875 875 876 876 877 877 878 878 879 879 880 880 880 881 881 881 881 881 881 881 880 880 880 880
858 859 859 860 860 860 860 861 861 862 862 862 862 862 862 862 862 863 863 862 862 862 861 861 861 861 862 861 861 861 861 861 861 861 862 863 863 863 863 863 864 866 866 867 867 867 868 868 868 868 868 867 867 869 870 869 870 871 871 872 873 873 874 874 875 875 876 876 877 878 879 879 879 880 880 880 880 880 880 880 880 880 880 880 879
857 858 858 858 859 859 859 860 860 861 861 861 861 861 862 862 862 862 862 862 862 861 861 861 860 861 862 861 861 861 861 861 861 862 863 863 863 863 863 864 864 865 866 867 867 868 868 868 868 868 867 866 867 870 870 869 870 870 871 872 872 873 873 874 874 874 875 875 876 876 877 878 878 878 879 879 879 879 879 879 879 879 879 879 879
856 856 857 857 858 858 858 859 860 860 861 860 861 861 861 862 862 862 862 861 861 860 860 860 860 861 861 861 861 862 862 861 861 862 863 863 863 863 864 864 865 865 866 866 867 868 868 868 868 867 867 866 867 868 868 868 869 869 871 871 872 873 873 873 874 874 874 875 875 875 876 876 877 877 877 878 878 878 878 878 878 878 878 878 878
854 855 856 857 857 857 858 858 859 860 860 860 860 860 861 861 861 861 861 861 861 860 860 860 860 860 860 861 862 862 862 862 862 863 863 863 863 864 864 865 865 866 866 866 867 868 868 867 868 867 867 867 866 866 867 867 868 868 869 870 871 872 872 873 873 874 874 874 874 875 875 875 875 876 876 876 876 876 876 876 877 876 876 876 876
853 854 854 855 856 856 857 857 858 859 859 860 860 860 860 861 861 861 861 861 860 860 860 860 860 860 860 861 862 862 862 862 863 864 864 864 864 864 864 865 865 866 867 867 867 867 867 867 868 868 867 867 867 866 866 866 867 868 868 869 870 870 871 872 872 873 873 873 874 874 874 874 874 874 874 875 875 875 875 875 875 875 875 875 875
852 853 853 854 855 855 856 857 858 858 859 859 859 859 860 860 860 860 860 860 860 860 861 861 860 861 861 861 862 863 862 862 863 863 863 864 864 864 864 865 865 866 866 867 867 868 868 868 868 868 867 867 867 867 867 867 867 867 868 868 869 869 870 871 871 872 872 872 873 873 873 873 874 873 873 873 873 874 874 874 873 873 873 874 874
850 851 852 853 853 854 855 855 856 857 858 858 858 859 859 860 859 860 860 860 860 860 861 861 861 861 862 862 862 862 862 863 863 862 863 863 863 864 864 864 865 866 866 867 867 868 868 868 868 868 867 867 867 867 867 867 867 867 868 868 868 869 869 870 870 870 871 871 872 872 872 872 873 873 873 873 873 873 873 873 872 872 872 872 872
848 849 850 851 852 853 854 854 855 856 857 857 858 858 858 859 859 859 859 859 860 860 861 861 860 860 861 861 862 862 863 862 862 862 862 863 863 864 864 864 865 866 866 867 868 868 868 868 869 868 868 868 868 868 868 868 868 868 868 868 868 869 869 869 870 870 871 871 871 872 871 871 872 872 872 872 872 872 872 872 871 871 871 871 871
847 848 849 850 851 852 853 853 854 855 855 856 856 857 857 858 858 858 858 859 859 860 861 860 859 860 861 861 860 861 863 862 861 862 862 863 863 864 865 865 866 866 867 867 868 869 869 869 869 869 869 869 869 869 868 869 868 868 868 868 869 869 869 869 870 870 871 871 871 871 871 871 871 872 871 872 872 871 871 871 871 871 870 870 870
845 846 847 848 849 850 852 853 853 854 854 855 855 856 856 857 857 858 858 858 858 859 860 860 860 860 861 860 859 860 863 862 860 861 862 863 863 864 865 865 866 867 867 867 868 869 869 869 869 869 869 869 869 869 869 869 869 869 869 869 869 869 869 870 870 870 871 871 871 871 871 871 871 872 871 872 872 871 871 871 870 870 870 869 869
843 844 845 846 848 849 850 851 852 853 853 854 854 855 855 856 856 857 857 857 858 858 859 860 860 860 859 859 860 861 860 858 859 862 862 862 863 863 864 865 866 867 867 867 868 869 869 870 870 870 870 870 870 870 870 870 870 870 870 870 870 870 870 871 871 871 871 871 871 871 871 872 872 872 872 872 872 872 871 871 870 870 869 869 869
840 842 843 845 846 847 849 850 851 851 852 852 853 853 854 854 855 856 856 857 857 857 858 859 860 860 860 859 860 860 858 857 860 862 862 861 862 863 864 865 865 866 867 867 868 868 869 870 870 870 870 871 871 871 871 871 871 871 871 871 871 871 871 871 871 871 872 872 872 872 872 872 872 872 871 871 871 871 871 871 870 870 869 869 868
838 840 841 842 844 845 847 848 849 850 850 851 852 852 852 853 854 854 855 856 857 857 857 858 859 860 860 860 859 859 859 859 860 861 862 862 861 862 863 864 865 866 866 867 867 867 868 869 870 870 871 871 871 871 871 872 872 872 872 872 872 872 872 872 872 872 872 872 872 872 872 872 872 872 871 871 871 870 870 870 869 869 869 868 868
836 837 838 840 842 843 845 846 847 848 849 850 850 851 851 852 853 853 854 855 856 857 856 857 858 858 859 860 860 860 860 860 860 860 861 862 861 861 861 862 864 865 865 866 866 866 868 869 869 870 870 871 871 871 872 872 872 872 872 872 873 873 873 873 873 873 873 872 872 872 872 872 872 871 871 871 870 870 869 869 868 868 867 867 866
833 834 836 838 839 841 843 844 845 846 847 848 849 850 850 851 851 852 853 854 855 856 856 856 856 856 858 859 859 860 860 860 860 860 860 861 861 860 861 862 863 864 865 865 865 866 867 868 869 870 870 871 871 871 872 872 873 873 873 873 873 873 873 873 873 873 872 872 871 871 871 871 871 871 871 870 870 870 869 868 868 867 866 866 865
830 832 834 835 837 839 840 842 843 844 845 846 847 848 849 849 850 850 851 853 854 854 855 856 856 855 856 858 859 859 860 859 860 860 859 861 861 858 857 860 861 863 864 864 865 866 866 867 868 869 869 870 871 871 872 872 872 873 873 872 873 873 873 873 872 872 871 871 871 871 870 871 871 870 870 870 870 869 869 868 868 867 866 866 865
828 830 831 833 835 837 838 840 841 842 843 844 845 846 847 848 848 849 850 851 852 853 853 854 855 855 856 857 858 858 858 859 858 858 858 859 860 858 855 857 860 861 862 864 864 865 866 867 867 868 869 869 870 870 871 871 871 872 872 872 872 872 872 872 871 871 871 870 870 870 870 870 870 870 870 870 869 869 869 868 868 867 866 866 865
826 827 829 830 832 834 836 837 839 840 841 842 843 844 845 846 847 847 848 849 850 851 852 853 854 855 855 855 856 856 857 857 857 858 858 858 859 858 856 858 860 860 861 863 863 864 864 865 866 866 867 868 869 869 870 870 870 870 871 871 871 870 870 870 870 870 870 870 870 870 870 870 870 870 870 870 869 869 869 868 868 867 866 866 865
823 825 826 828 830 831 833 835 836 837 838 839 841 842 843 844 845 846 846 847 849 849 850 851 852 853 854 854 854 855 855 856 857 857 858 858 859 858 857 858 858 858 860 861 861 863 863 864 865 865 866 867 867 868 868 869 869 869 869 869 869 869 869 868 869 869 869 870 870 870 870 870 869 869 869 869 869 868 868 867 867 866 865 865 864
820 821 823 826 827 829 830 832 833 835 836 837 838 839 841 842 843 844 845 846 847 848 848 849 851 851 852 852 853 853 854 855 856 856 856 857 858 858 858 858 858 857 860 861 862 862 862 862 863 864 865 866 866 867 867 868 868 867 867 867 867 867 867 867 868 868 869 869 869 869 869 869 868 868 868 867 867 867 866 865 865 864 863 863 862
817 818 820 823 824 826 827 829 831 832 833 835 836 837 838 839 841 842 843 844 845 846 847 847 849 850 850 851 851 852 853 853 854 855 855 855 856 857 858 859 859 858 858 860 861 861 861 861 862 863 864 864 864 865 865 866 866 866 866 866 866 866 866 866 867 867 867 867 868 868 867 867 867 866 866 865 865 864 863 863 862 861 861 860 860
814 816 817 819 821 823 825 826 828 830 831 832 834 835 836 837 838 840 841 842 843 844 845 845 847 848 849 850 850 851 852 852 853 853 854 854 855 856 857 857 859 859 858 858 859 858 859 859 859 861 862 862 863 863 863 864 865 864 865 865 865 865 865 865 866 866 866 866 866 866 866 866 865 865 864 863 862 862 861 860 860 859 859 858 858
811 813 814 816 818 820 821 824 825 827 828 830 831 832 833 834 835 837 838 839 841 842 843 843 844 846 847 848 849 850 850 851 852 852 853 854 854 855 855 856 857 857 857 858 858 856 856 857 857 858 860 861 861 862 862 863 863 863 864 864 865 864 864 864 865 865 865 865 865 865 865 864 863 863 862 861 861 860 859 859 858 857 857 856 856
808 810 812 813 815 816 818 821 822 824 826 827 828 829 831 831 833 834 836 837 839 839 840 841 842 843 845 846 847 848 849 850 850 851 851 852 852 853 854 854 855 855 855 857 857 855 856 856 855 856 858 859 860 860 861 861 861 862 862 863 863 863 863 863 863 864 864 864 864 863 863 863 862 861 860 860 859 858 858 857 856 856 855 854 854
805 806 808 810 812 813 815 817 819 821 823 824 826 827 828 829 830 831 833 835 836 837 838 839 840 841 842 844 845 846 847 848 848 849 849 850 851 851 852 853 854 854 854 855 855 855 855 855 855 856 857 858 859 859 859 860 860 860 861 862 862 862 862 862 862 862 862 862 862 862 861 861 860 859 859 858 857 857 856 855 855 854 853 853 852
801 803 804 806 808 810 812 814 816 818 819 821 822 824 825 826 827 828 830 832 833 835 836 837 838 839 840 842 843 844 845 846 847 847 847 848 849 849 850 851 852 853 853 854 854 853 854 854 854 855 855 856 857 857 858 858 859 859 860 860 860 860 861 861 861 861 861 861 861 860 860 859 858 857 857 856 855 855 854 854 853 852 852 851 850
797 799 800 802 804 807 808 810 812 814 815 817 819 820 822 823 824 825 827 828 830 832 833 834 835 837 838 840 841 842 843 844 845 845 846 846 847 847 848 848 849 850 850 851 851 851 852 853 853 853 854 854 855 856 856 857 858 858 859 859 859 859 859 859 859 859 859 859 859 858 858 857 856 855 854 853 853 852 852 851 851 850 850 849 849
793 795 797 798 801 803 805 807 808 810 812 813 815 817 818 820 821 822 823 825 827 829 830 832 832 834 836 837 839 840 841 842 843 843 844 844 845 845 846 846 846 846 847 848 849 849 849 851 852 852 852 853 853 854 855 855 856 857 857 858 858 858 858 857 857 857 857 857 857 856 855 854 854 853 852 851 850 850 849 849 848 848 848 847 846
789 790 792 795 797 798 801 803 805 807 808 809 811 813 814 816 817 818 820 821 823 825 827 828 829 831 833 834 836 837 838 839 840 841 841 842 842 843 844 844 844 844 845 846 846 846 847 848 849 849 850 851 852 852 853 854 855 855 856 856 856 856 856 855 856 855 855 855 855 854 853 852 851 850 850 849 848 848 847 847 847 846 845 845 844
784 786 788 790 793 794 796 799 801 803 804 806 807 809 810 812 813 815 816 818 819 821 823 824 826 828 829 831 832 834 835 836 837 838 839 839 840 841 841 842 843 843 843 843 844 844 844 845 846 847 848 849 850 851 852 852 853 853 854 854 854 854 854 854 854 853 853 853 852 851 850 850 849 848 847 847 846 846 845 845 845 844 843 843 842
778 781 783 786 788 790 791 794 796 798 800 802 803 805 806 808 809 811 813 814 815 817 819 820 822 824 825 827 829 830 831 832 834 835 836 836 837 838 839 839 840 841 841 841 842 842 843 843 844 845 846 847 848 849 850 850 851 851 852 852 852 852 852 852 852 852 851 850 850 849 848 848 847 846 846 845 844 844 843 843 842 842 841 841 840
774 776 778 780 782 784 787 789 791 793 795 798 799 800 802 804 805 807 809 810 811 813 815 816 818 820 821 823 825 826 827 828 830 831 832 833 834 834 835 836 837 838 839 840 840 840 841 841 842 843 844 845 846 847 847 848 848 849 849 850 849 849 849 849 850 850 849 849 848 847 847 846 845 844 843 843 843 842 841 841 840 840 839 839 838
768 770 773 775 777 779 782 784 787 789 791 793 795 796 798 799 801 802 804 806 808 809 810 812 814 816 817 819 820 822 823 824 825 827 828 829 830 831 832 833 835 836 836 837 838 838 839 839 840 840 841 842 843 844 845 846 846 846 847 847 847 846 846 847 847 847 847 847 846 845 845 844 844 843 841 841 840 840 839 839 838 838 837 836 835
763 765 767 770 772 774 777 779 782 784 786 788 790 791 793 794 796 798 800 802 804 805 806 808 810 811 813 814 816 817 818 819 821 823 824 825 826 827 829 830 832 833 834 835 835 836 837 837 837 838 838 839 840 841 843 843 844 843 844 844 844 844 844 844 845 845 845 845 844 843 843 842 841 841 840 839 838 838 837 837 836 836 835 835 834
758 760 763 765 767 770 772 774 777 779 781 782 784 785 787 789 791 793 796 798 800 801 802 803 805 807 808 810 811 812 814 815 817 818 820 821 823 824 826 827 829 830 831 832 833 833 834 834 835 835 835 836 837 839 840 840 840 841 841 842 842 842 843 843 843 843 843 843 843 842 842 841 840 840 839 838 837 836 836 835 835 834 834 833 833
754 756 759 761 763 765 767 769 771 773 775 776 778 780 782 784 787 789 791 794 796 797 798 799 801 802 804 805 806 808 810 811 813 815 816 818 819 821 823 824 826 828 829 830 830 830 831 831 831 832 832 833 834 835 836 837 838 839 839 840 840 840 841 841 841 841 841 841 841 841 840 840 839 838 837 837 836 835 835 834 833 833 832 832 831
750 752 755 757 758 761 763 764 766 768 769 771 772 775 777 779 783 785 787 789 791 793 794 795 796 798 799 801 802 804 805 807 809 811 813 815 817 819 821 822 824 826 827 828 828 828 829 829 829 829 829 830 830 832 834 835 836 837 837 838 838 838 839 838 838 839 839 840 840 839 838 838 838 837 836 835 834 834 833 832 831 831 831 830 830
746 749 751 753 755 757 759 760 762 763 764 765 767 770 772 775 778 781 783 785 786 788 790 790 792 793 795 797 798 800 801 802 805 807 809 812 814 816 819 821 822 824 826 827 828 828 828 828 827 827 827 827 828 829 831 832 833 834 835 836 836 836 836 837 837 837 838 838 838 837 837 837 836 835 834 834 833 832 832 831 830 830 830 829 828
743 745 747 750 752 754 755 756 758 758 759 760 762 765 768 770 774 777 779 781 782 783 785 786 788 789 791 793 794 796 796 798 801 804 806 808 811 814 817 819 820 822 824 826 826 827 827 827 827 826 826 826 826 827 828 829 831 832 833 834 834 834 834 835 835 836 836 836 836 836 836 836 835 834 833 832 831 831 831 829 828 829 828 827 826
739 741 743 746 749 750 751 752 754 754 755 756 757 759 763 766 770 773 775 777 778 779 781 783 784 785 787 788 790 791 793 794 797 800 802 804 807 811 814 816 818 819 820 822 824 825 826 825 825 825 825 825 825 825 826 827 829 830 831 831 832 832 833 833 834 834 834 834 835 835 835 834 834 833 831 831 830 830 829 828 827 827 827 826 825
733 736 739 741 743 745 746 748 749 750 750 751 752 755 758 761 765 769 771 774 774 775 777 778 780 781 782 784 785 787 788 789 791 795 798 801 803 807 810 812 814 815 816 819 821 822 824 824 823 824 824 824 824 824 824 825 827 828 829 829 830 831 831 832 832 832 832 832 833 835 834 833 833 832 830 829 829 828 828 827 826 825 825 824 823
729 731 734 735 738 740 741 742 743 743 745 746 747 749 752 756 760 763 766 768 769 769 771 773 775 777 778 778 779 781 783 785 786 790 794 797 800 803 806 809 811 812 813 815 817 820 821 822 822 822 822 822 822 822 823 824 825 826 827 828 829 829 830 830 830 829 829 830 831 832 833 832 832 831 829 828 828 827 826 826 825 823 823 822 822
724 726 727 730 733 735 735 736 737 737 739 741 742 744 746 750 754 757 759 761 762 763 764 766 768 770 772 773 773 775 778 780 782 785 790 794 797 799 802 804 807 808 810 812 814 817 819 820 820 820 821 821 821 821 821 822 823 824 826 827 827 827 827 827 827 827 828 829 829 831 832 831 831 830 829 827 826 826 825 824 823 822 821 820 819
719 721 723 725 728 729 730 731 731 733 734 735 737 739 741 744 747 749 752 755 756 757 758 760 762 763 765 767 768 770 773 774 777 780 784 789 793 795 797 800 802 804 806 808 811 814 817 818 819 819 820 820 820 820 820 820 821 823 824 825 825 824 824 825 825 826 827 828 828 829 830 830 830 829 828 826 825 824 823 822 822 822 820 819 818
715 717 719 721 722 723 725 726 727 728 729 730 731 733 736 739 741 744 747 750 750 750 752 754 755 757 759 762 763 765 768 770 772 775 779 784 788 791 793 795 797 799 801 804 807 810 813 815 817 817 818 819 819 819 819 819 820 821 823 823 823 823 823 823 824 825 826 826 826 828 829 829 828 828 827 825 823 822 821 821 821 820 819 818 817
Wind_Speed
5 5 4 4 3 2 2 1 1 1 1 1 1 1 0 0 0 0 1 0 1 1 1 1 1 0 1 1 2 3 4 4 4 2 1 2 2 3 3 2 1 2 3 4 3 3 5 5 5 6 6 6 6 6 7 7 7 6 6 6 5 5 5 5 4 4 4 4 4 5 5 4 4 4 3 4 3 3 3 3 3 3 4 4 4
5 5 4 4 3 3 2 1 1 1 0 1 1 0 0 1 1 1 1 1 1 2 2 1 1 1 1 2 1 2 3 4 3 1 1 2 2 3 4 3 2 1 3 4 3 3 4 5 5 6 6 6 6 6 7 7 7 8 7 7 6 6 6 6 6 5 5 5 6 6 5 5 5 5 4 4 4 4 4 4 4 5 5 5 5
5 5 4 4 3 3 2 1 1 1 1 1 1 0 1 1 1 1 1 1 2 2 2 2 2 1 1 2 2 2 3 4 3 1 2 2 2 3 3 3 2 1 1 3 4 5 5 5 5 5 5 5 6 6 7 7 8 8 8 8 7 7 7 7 6 6 6 6 6 6 6 7 6 5 5 4 4 5 5 5 5 6 6 6 6
5 5 5 5 4 3 2 2 1 0 0 0 1 0 1 1 1 1 1 1 2 2 3 3 2 2 2 2 2 2 3 5 3 2 2 2 2 2 3 3 3 4 3 3 4 6 6 5 4 5 5 5 6 7 7 8 8 8 8 9 8 8 8 7 7 7 7 7 8 8 8 8 8 7 6 6 6 6 6 6 6 7 7 7 8
7 6 6 5 5 4 3 3 2 1 1 1 0 0 0 1 0 0 1 1 2 2 3 3 3 2 2 2 2 2 3 4 2 2 2 2 2 2 3 4 4 4 4 3 2 4 6 7 5 5 6 6 7 8 7 7 8 9 8 9 9 9 9 8 8 8 9 9 9 10 9 9 8 8 8 7 7 7 7 7 8 8 8 9 9
7 7 6 6 6 5 4 3 2 2 2 2 1 1 0 0 0 1 1 1 2 2 3 3 2 2 2 3 2 2 3 4 2 2 2 3 2 2 3 4 5 4 3 2 3 2 3 6 7 7 7 7 7 8 8 8 9 9 9 10 10 11 10 10 10 11 11 11 11 11 10 10 10 10 9 9 9 9 9 9 9 9 10 10 10
8 7 7 7 6 5 5 3 2 2 3 2 2 2 1 1 0 1 1 1 1 2 3 3 2 2 2 2 2 2 3 3 2 2 3 3 3 3 2 3 4 4 3 2 3 3 1 3 6 7 7 7 8 7 8 10 10 11 12 12 12 12 12 13 13 12 12 12 12 11 11 11 12 11 11 10 10 10 10 10 10 10 10 10 11
9 8 8 8 7 6 5 4 3 3 3 2 3 3 2 1 0 1 2 2 2 3 3 3 3 3 2 2 2 1 2 2 1 2 3 3 4 4 4 4 4 4 3 3 3 2 2 1 4 6 7 8 9 8 9 10 11 11 12 13 12 12 13 14 14 13 13 13 12 12 12 12 13 12 11 11 12 12 11 12 12 11 11 11 11
10 9 9 8 7 6 5 4 4 3 3 3 3 3 3 2 1 1 1 2 3 3 3 3 3 3 1 1 1 1 2 1 1 3 3 4 5 6 7 6 5 4 3 3 3 1 2 2 2 4 5 7 8 8 8 9 10 9 11 13 12 12 13 13 14 13 13 13 13 12 12 13 14 13 12 11 12 12 12 13 13 13 14 13 13
10 10 9 9 8 7 6 5 4 4 3 4 3 3 3 3 2 2 1 2 3 3 3 3 4 3 1 0 1 1 1 1 1 2 2 4 5 6 8 7 6 6 4 4 4 2 1 1 1 1 3 4 6 7 7 8 9 9 10 11 11 11 12 13 14 13 13 13 12 12 12 12 12 11 11 11 11 12 12 13 13 14 14 14 14
11 11 10 9 8 7 7 5 5 5 4 5 4 3 4 4 4 3 1 1 2 3 4 3 4 3 2 1 1 0 1 1 1 1 1 3 4 5 7 7 7 6 5 4 4 4 3 1 2 1 3 3 4 5 5 6 6 7 8 9 9 9 10 11 12 12 13 12 12 12 12 11 10 10 11 11 11 11 12 12 13 13 13 13 14
11 11 10 9 8 7 7 6 6 5 5 6 5 4 4 4 5 4 2 2 2 2 2 3 3 2 2 1 2 1 1 1 0 1 2 3 4 4 5 7 8 7 6 5 4 5 5 4 3 2 2 1 2 3 3 3 3 4 5 6 7 7 7 8 8 9 10 10 11 11 10 10 10 9 10 9 9 9 10 11 11 12 12 12 13
12 12 11 9 8 7 7 6 6 6 6 6 5 4 4 5 5 4 3 2 2 0 1 2 1 1 1 2 2 2 2 2 2 1 2 4 5 4 4 6 7 7 7 7 6 6 6 5 4 3 3 3 2 0 0 1 2 2 3 4 4 4 4 5 5 6 6 7 7 8 8 9 8 8 8 8 8 8 9 10 11 12 12 13 13
13 13 11 10 9 7 7 6 6 6 6 6 6 6 6 6 5 4 3 2 2 1 2 1 1 2 3 4 4 3 2 2 2 1 3 4 5 5 4 5 7 7 8 8 8 7 7 6 5 4 3 3 4 3 2 3 1 0 1 1 1 1 2 2 3 3 4 4 5 6 6 7 7 6 6 6 7 7 8 8 9 10 11 11 12
14 13 12 11 9 8 7 7 6 6 6 6 6 7 7 7 6 5 3 2 1 1 2 2 1 4 4 3 4 4 3 3 3 2 3 4 4 4 4 5 6 6 6 6 7 7 6 7 6 6 4 3 4 4 4 4 3 2 2 2 2 2 2 1 1 1 2 3 3 3 3 3 4 4 4 5 5 6 6 6 7 7 8 8 9
15 14 13 11 10 9 8 7 7 7 6 6 6 7 8 7 6 5 4 3 2 3 3 3 2 4 4 2 2 2 3 4 4 4 4 4 4 4 4 4 5 5 5 5 6 6 6 6 6 6 5 4 4 4 5 6 5 4 3 2 2 2 2 1 1 1 0 1 1 2 1 1 2 2 3 3 3 3 4 5 6 6 6 6 6
15 15 14 12 11 10 9 8 7 7 7 7 7 8 8 7 6 6 6 4 2 2 3 4 4 4 3 1 1 1 2 4 5 4 3 4 4 4 3 3 4 4 4 5 5 5 5 5 5 5 5 5 5 5 6 6 6 5 3 3 3 2 2 3 3 3 3 3 4 4 4 4 3 3 3 3 3 3 3 3 4 5 5 5 6
16 16 15 14 12 11 10 10 9 8 8 8 7 8 8 7 7 6 6 5 3 3 3 5 5 5 5 3 1 1 2 3 3 3 3 4 4 4 4 3 3 4 3 4 4 4 5 5 4 5 5 5 5 5 6 6 6 6 5 5 5 5 5 5 5 5 5 5 5 5 5 5 5 4 4 3 3 3 3 3 3 4 4 4 5
17 17 17 15 14 12 12 11 11 9 9 8 8 8 7 7 7 7 6 5 5 4 5 6 6 6 7 6 4 2 0 2 2 2 3 4 4 4 5 5 4 4 4 4 4 4 4 4 4 4 4 4 5 5 6 6 7 7 7 6 6 6 6 6 6 5 5 5 5 5 5 5 4 4 4 3 2 2 2 2 2 3 3 4 4
19 17 17 17 15 14 12 12 12 11 10 10 10 9 7 7 7 7 7 7 7 6 6 7 7 7 8 7 6 4 3 4 3 2 2 2 3 4 5 6 6 5 5 4 4 3 3 3 3 3 3 4 4 4 5 6 6 6 6 5 6 6 6 6 5 5 5 5 4 4 3 3 3 3 3 3 3 3 2 3 3 3 4 4 4
19 18 17 17 16 15 13 13 12 12 11 11 10 9 8 8 8 9 9 8 8 7 7 7 7 7 8 7 6 5 5 5 4 4 4 3 2 2 4 5 6 6 5 5 4 3 4 4 3 2 3 3 3 3 3 4 5 4 4 4 4 4 4 3 3 3 3 2 2 1 1 1 2 2 2 3 3 3 3 4 4 5 5 4 5
18 19 18 17 17 16 15 14 13 13 12 11 11 10 9 9 9 10 10 9 9 9 9 9 8 7 7 8 7 6 5 5 5 5 5 4 3 3 4 5 5 5 5 6 6 5 5 4 3 3 2 2 2 3 3 3 4 4 3 3 3 2 2 2 1 1 1 1 1 1 1 2 2 3 4 4 4 4 5 5 5 6 6 5 6
16 17 18 18 17 17 16 15 14 14 13 12 11 11 10 9 9 10 11 11 10 9 9 10 9 8 7 8 8 7 6 5 5 5 4 4 4 4 3 2 2 4 4 4 5 6 6 5 5 5 4 3 3 2 3 2 3 4 4 4 3 3 3 3 3 3 3 3 2 2 2 3 4 5 5 6 7 8 8 8 8 8 8 8 8
16 16 17 18 18 18 17 16 15 15 14 13 12 11 10 9 9 10 11 11 10 10 10 11 10 10 9 9 9 8 7 6 5 4 4 4 3 3 3 1 2 3 2 3 5 6 6 7 8 7 6 5 4 4 4 3 4 5 4 5 6 6 6 6 5 5 5 4 4 4 4 5 6 7 7 8 9 10 10 11 11 11 10 11 11
17 17 17 17 17 18 18 17 17 16 15 14 13 12 11 11 10 10 11 11 11 11 11 12 12 11 10 9 9 8 8 7 6 5 5 4 4 4 3 2 3 2 2 2 3 3 5 6 7 7 6 5 5 6 6 5 5 7 6 6 9 9 9 8 7 7 6 6 6 6 6 7 7 8 9 10 11 11 11 12 12 12 12 12 12
19 20 18 18 17 17 18 18 18 17 17 16 15 14 13 13 12 11 11 11 11 12 12 12 12 11 10 9 8 8 8 8 7 6 6 6 5 4 2 2 3 2 2 1 2 3 3 3 4 5 5 5 6 7 7 6 6 9 9 7 9 12 12 11 9 8 8 8 8 8 8 8 9 11 12 13 14 14 14 14 14 14 14 14 14
19 20 19 18 18 18 17 18 18 18 18 17 17 16 15 14 13 13 12 11 12 13 13 13 12 12 11 10 9 8 8 8 8 8 7 6 5 4 4 3 3 2 2 2 2 3 2 2 3 3 3 5 6 7 8 7 7 11 11 7 7 11 12 12 11 10 9 10 10 10 10 11 12 13 14 15 16 17 18 18 18 17 17 16 15
18 18 18 19 19 19 18 18 18 18 19 18 18 17 16 15 14 14 14 13 13 14 14 13 13 13 12 11 10 9 8 9 9 9 8 7 6 5 6 5 4 2 2 2 2 2 2 3 4 4 2 4 4 6 7 7 8 10 9 6 6 7 9 10 11 10 10 10 11 11 12 12 13 13 14 15 16 18 19 20 21 21 21 20 19
19 18 18 19 20 20 19 18 18 19 19 19 19 18 17 16 16 16 15 14 13 14 14 14 13 13 13 12 12 10 9 9 9 9 9 8 7 7 8 7 6 3 2 2 2 2 2 3 3 4 3 3 3 5 5 5 7 8 6 5 5 5 6 7 8 8 9 9 10 11 11 11 12 14 15 16 17 18 19 20 21 22 23 22 22
20 19 19 19 20 20 20 18 18 19 19 19 19 19 18 18 17 16 17 15 15 15 15 14 13 13 13 12 12 11 10 10 10 10 10 9 9 9 9 9 8 6 4 2 2 3 4 4 4 2 3 3 4 5 5 5 7 7 5 5 4 5 7 6 6 7 8 9 10 10 11 12 14 16 17 19 19 20 20 20 21 21 22 21 21
22 21 20 19 19 20 20 20 19 19 20 20 19 19 20 19 18 17 17 17 16 16 16 15 14 14 14 13 12 11 10 10 11 11 11 11 11 10 10 9 9 8 7 5 3 3 4 4 4 2 2 4 5 5 5 6 7 7 5 4 5 6 6 5 6 7 7 9 9 10 12 14 15 17 18 20 21 21 20 20 19 19 19 19 18
22 22 22 21 20 20 20 21 20 20 20 20 20 20 21 20 19 18 18 17 18 18 17 16 15 14 15 14 13 12 11 11 11 12 12 12 12 11 11 11 10 9 8 7 5 4 4 4 3 4 4 5 5 6 7 6 7 7 6 5 6 5 5 5 6 7 8 8 9 10 12 14 15 17 19 20 21 20 20 20 19 19 18 18 18
23 23 23 23 22 22 21 21 21 21 21 21 20 20 21 21 20 19 19 19 19 20 18 17 16 15 15 15 15 14 13 12 12 13 13 13 13 12 12 12 11 11 10 9 7 5 5 4 4 4 4 5 5 7 8 7 7 7 7 6 6 6 6 7 8 9 9 9 9 10 12 14 15 17 18 19 19 19 18 18 19 19 18 19 19
25 25 24 24 24 23 23 22 22 22 22 22 21 21 22 22 21 20 20 20 21 20 20 19 17 16 16 16 16 15 14 14 14 14 13 14 14 14 13 13 13 12 12 11 9 7 6 5 6 6 6 6 6 6 7 8 7 7 7 7 7 7 7 8 8 9 10 11 11 12 13 14 14 14 15 16 16 16 16 16 17 18 18 19 19
26 27 26 25 24 24 24 23 23 23 22 22 22 22 22 23 23 21 21 21 22 21 21 20 19 17 17 17 17 17 16 16 16 15 15 15 15 14 14 14 13 13 12 12 10 8 7 7 7 7 8 7 7 6 7 7 7 7 9 9 8 8 8 9 9 9 10 11 12 13 13 12 12 13 13 14 15 15 15 15 16 17 17 18 18
28 28 27 26 25 25 25 25 24 24 23 23 23 23 23 24 24 23 22 22 22 22 21 21 20 19 19 18 19 18 18 18 17 17 16 16 16 15 15 14 14 13 12 13 12 10 8 7 8 7 7 7 7 7 7 7 7 8 9 9 9 9 9 9 8 8 10 12 13 12 11 11 11 12 13 14 16 16 17 17 18 18 18 18 19
30 28 27 27 27 26 27 26 26 25 25 24 24 24 24 24 24 24 24 23 23 22 22 22 21 21 20 20 20 20 20 19 19 18 18 17 17 16 16 16 15 14 13 13 13 12 10 9 8 8 7 7 7 8 8 8 8 8 8 9 9 9 9 9 9 8 10 13 12 10 10 10 11 12 13 14 15 16 17 17 18 18 18 18 19
31 29 28 28 28 28 27 27 27 27 26 26 26 26 25 25 25 25 25 24 24 23 23 23 23 22 22 22 21 21 22 21 20 19 19 19 19 18 18 17 16 15 14 13 12 12 11 10 9 8 8 8 8 8 9 9 9 9 9 9 10 10 9 8 8 8 9 10 9 8 9 9 9 11 13 14 14 15 16 17 18 18 18 19 20
31 31 30 29 29 29 28 27 27 27 27 27 26 27 27 26 26 26 26 25 24 24 24 24 24 24 23 23 23 23 24 23 22 21 21 21 20 20 20 19 17 16 15 14 13 12 12 11 10 9 8 8 9 9 9 10 9 9 10 10 9 9 9 8 8 7 7 8 10 10 8 8 10 11 12 15 15 15 16 16 16 17 17 17 17
31 32 31 30 29 28 28 28 28 28 28 28 28 27 28 28 27 26 26 25 24 23 24 24 25 24 24 24 24 24 25 25 24 23 22 22 21 20 20 19 18 17 15 14 13 13 12 11 11 10 9 9 9 9 9 10 10 10 10 9 8 7 7 7 6 6 7 7 8 8 7 9 12 11 12 15 15 14 15 15 15 14 11 11 13
30 31 31 30 29 28 28 28 29 29 28 29 29 30 29 29 28 27 26 26 25 24 23 24 25 25 25 25 25 26 26 27 28 26 24 24 23 21 20 21 19 18 17 15 14 14 13 12 11 11 10 10 10 10 10 11 11 10 8 8 7 6 6 6 6 6 6 6 6 6 7 10 12 12 12 14 13 12 14 14 13 10 7 8 11
29 29 29 29 29 29 29 29 29 29 29 29 31 34 34 31 28 27 26 25 26 25 24 24 25 26 26 26 26 27 28 29 30 30 28 28 27 23 21 21 21 20 18 17 16 15 14 13 13 12 11 11 11 11 12 12 10 9 8 7 7 7 6 7 7 6 4 4 6 7 9 11 12 12 12 12 11 11 11 11 10 9 10 12 14
29 29 29 30 30 28 28 29 29 30 30 30 33 36 38 36 31 27 25 25 25 25 25 24 25 26 26 25 25 26 29 32 32 32 31 30 29 27 24 23 23 22 19 18 17 16 15 14 13 13 12 11 11 10 11 11 10 9 8 8 7 7 7 8 8 5 4 3 5 8 11 11 10 11 12 11 11 10 9 10 11 13 15 17 17
29 28 28 29 29 28 27 28 29 30 30 32 35 37 39 40 38 30 25 24 25 26 26 26 25 25 25 25 24 24 28 33 33 32 32 31 30 29 27 25 25 23 21 19 17 16 15 14 13 13 12 11 11 10 11 11 9 9 9 8 8 8 8 7 6 5 3 3 5 8 11 10 9 11 12 11 10 10 10 11 12 14 15 16 16
29 29 29 29 29 29 28 28 29 29 29 32 37 39 39 41 42 37 28 24 25 26 26 26 26 25 25 24 24 23 24 30 33 30 30 32 31 29 28 27 26 25 23 22 20 18 16 14 14 14 13 11 10 10 10 9 8 9 10 9 9 8 7 5 5 5 4 4 5 7 9 10 9 11 11 11 10 9 10 11 12 14 15 14 13
30 31 30 29 31 31 30 30 30 29 29 31 36 40 41 40 42 42 35 26 24 25 26 26 25 25 26 25 25 23 23 28 33 30 26 28 30 29 28 28 26 24 24 25 24 22 19 16 15 15 13 12 10 9 9 10 9 9 9 9 8 6 5 5 5 6 6 5 3 5 8 9 9 11 12 11 10 9 9 11 13 15 13 11 11
30 32 30 30 33 34 31 31 32 32 31 32 35 38 41 41 41 43 39 31 25 25 25 25 25 26 27 27 27 25 24 27 33 31 25 23 25 26 26 25 23 21 21 23 24 24 22 19 16 15 14 13 11 10 10 11 9 8 7 6 5 4 4 4 5 6 6 5 5 4 8 9 9 11 12 10 10 10 10 12 14 14 12 11 12
28 30 30 31 33 33 32 32 33 34 33 33 34 37 40 41 40 42 42 35 30 28 26 25 25 26 27 29 28 28 27 28 32 33 28 23 21 23 23 21 20 19 18 20 22 23 22 20 18 17 15 14 14 12 12 11 9 7 7 6 5 5 5 4 4 4 3 3 5 5 7 8 9 10 12 11 10 11 11 12 12 11 12 14 14
27 29 29 30 31 31 33 33 34 35 34 34 35 37 39 40 41 43 43 38 33 31 29 27 26 27 30 30 29 28 28 28 31 33 32 27 22 22 22 20 19 18 17 18 21 24 24 22 20 19 18 17 17 15 13 13 11 9 8 8 7 7 6 4 3 3 3 3 4 3 4 8 9 9 11 12 11 12 12 10 9 10 13 16 16
27 27 27 28 28 29 32 34 34 34 34 33 36 38 40 41 43 45 42 38 36 33 30 29 29 29 32 33 32 30 27 28 31 33 33 31 25 22 22 21 19 19 18 17 18 21 24 23 21 21 19 18 17 15 14 13 13 12 10 8 8 7 6 4 3 3 4 6 4 2 3 8 8 8 10 11 12 12 10 9 9 11 14 15 15
26 26 25 26 26 28 31 33 34 35 34 34 36 39 40 42 45 45 40 37 37 34 30 30 30 30 31 33 35 35 29 28 32 34 34 34 28 23 23 22 20 20 20 18 17 19 22 22 21 21 21 19 16 15 14 14 13 13 11 9 7 6 6 4 3 3 5 5 2 3 4 8 8 8 9 10 10 10 10 10 11 12 13 14 15
Wind_Direction
202 200 196 192 196 198 198 188 154 140 151 147 114 107 164 145 133 1 10 1 325 349 350 7 75 97 54 41 38 31 15 22 27 12 36 100 128 146 140 126 108 125 180 198 198 181 192 193 179 188 194 198 215 212 203 205 209 208 208 214 216 213 214 218 216 208 209 210 209 210 212 217 227 232 231 232 235 234 237 247 250 252 258 268 281
205 201 196 196 201 205 201 177 154 137 129 109 84 52 350 30 30 0 7 345 328 343 343 348 345 0 18 351 3 19 5 12 12 0 113 112 129 151 145 132 136 151 179 189 200 191 194 200 195 196 194 198 212 215 213 216 218 215 212 212 215 218 219 223 225 222 219 217 220 229 229 226 230 239 242 241 243 250 252 258 262 265 269 274 282
209 202 198 200 204 206 206 199 171 124 89 79 81 51 17 17 19 0 346 332 325 331 333 334 329 339 355 344 0 4 3 5 352 41 98 96 108 149 148 135 130 70 96 164 188 204 209 211 207 207 202 199 209 218 220 221 223 221 221 220 217 219 223 227 229 231 233 231 233 239 241 239 241 242 247 251 251 256 259 263 269 273 277 279 282
215 208 203 202 207 215 217 228 241 217 150 63 69 67 65 52 37 342 318 318 315 324 326 322 322 324 334 350 9 0 2 2 2 53 73 81 97 138 138 130 117 80 78 129 182 203 210 218 225 224 215 208 213 224 223 221 225 224 224 227 224 223 223 227 231 231 232 232 234 237 240 244 247 248 251 255 256 260 261 263 266 269 274 278 280
216 215 210 207 212 224 229 229 241 249 246 252 263 246 71 53 58 281 286 294 306 324 320 314 323 334 332 344 9 10 0 0 19 69 61 62 86 129 129 126 115 89 88 101 141 194 207 213 222 232 226 219 219 224 223 223 229 231 232 233 233 231 228 228 231 232 231 232 235 237 240 244 248 250 253 254 256 260 261 262 264 267 270 273 277
216 216 213 214 216 222 229 230 236 245 249 240 239 242 244 298 287 277 301 305 314 321 318 322 330 343 341 342 17 21 357 5 26 59 61 58 70 96 121 131 125 106 95 85 82 115 200 208 215 227 228 228 229 227 224 227 229 229 231 234 236 235 231 229 230 232 234 237 243 246 246 248 249 250 253 255 259 263 264 267 267 269 270 274 279
216 219 217 218 221 221 223 225 227 240 243 228 230 237 229 242 279 345 330 328 334 315 323 337 332 356 3 354 33 27 355 16 35 58 67 66 69 71 77 113 122 115 116 108 74 62 82 202 215 226 229 236 239 232 228 230 231 231 230 231 234 235 235 234 233 235 236 239 245 250 252 254 255 255 257 259 261 264 265 269 270 271 274 276 280
218 221 222 223 226 227 226 221 224 239 238 229 235 238 227 215 258 352 347 344 334 323 336 341 339 14 16 358 39 37 0 16 86 82 64 53 59 70 73 82 96 99 105 104 95 62 45 112 198 217 227 240 246 242 238 237 238 240 241 240 239 239 240 240 239 240 242 244 246 250 254 256 257 258 259 262 264 266 265 267 268 269 272 275 277
219 221 224 227 229 231 228 218 222 236 235 239 248 238 228 216 218 302 338 344 327 326 341 337 347 14 351 342 43 41 11 15 90 81 71 59 62 72 78 83 85 84 87 94 107 95 27 56 160 205 217 235 250 251 250 249 245 245 246 247 246 244 247 249 248 248 247 248 248 251 255 256 257 257 257 260 265 269 268 268 268 269 270 271 271
218 220 223 225 229 231 231 224 227 234 234 244 251 244 236 220 211 236 297 343 329 330 345 347 350 352 316 106 131 12 24 116 81 63 84 74 69 74 80 85 82 81 82 85 101 110 73 28 64 176 220 242 257 261 261 257 250 248 249 247 244 244 249 252 250 251 250 248 248 250 254 257 256 255 256 260 262 264 267 269 270 271 272 273 273
216 219 220 222 226 230 234 233 233 235 238 248 251 246 239 222 217 221 254 325 321 336 0 359 344 340 349 96 149 303 24 143 113 81 106 85 75 73 81 86 81 79 78 82 94 100 115 90 77 183 249 264 263 265 267 266 252 245 250 249 247 247 251 253 253 255 254 253 254 255 256 258 259 258 261 264 263 262 265 268 269 271 273 275 277
214 215 216 219 225 230 235 235 237 237 239 250 255 255 244 227 222 212 219 287 323 356 14 355 344 354 358 104 152 183 184 180 198 165 140 125 103 82 83 86 83 80 75 77 88 96 109 110 113 164 213 229 248 264 260 275 273 248 250 252 255 258 253 253 258 259 260 261 262 261 260 260 262 265 267 269 269 268 268 269 270 272 274 274 276
212 212 213 219 226 231 234 233 236 237 237 247 252 258 249 226 217 212 230 276 314 31 68 21 15 79 118 146 159 188 182 199 247 236 158 148 128 105 94 89 86 85 81 78 84 96 105 109 110 109 118 132 122 139 193 17 330 285 265 256 257 266 257 251 255 256 263 268 266 265 264 262 263 267 270 270 269 270 272 274 275 275 275 276 278
212 212 212 218 224 229 231 228 233 233 231 240 244 250 247 232 220 219 235 263 304 13 111 153 165 135 134 145 160 174 181 223 240 207 162 156 140 127 109 92 87 84 88 88 86 90 93 96 97 93 97 105 109 120 101 73 25 301 200 232 208 225 248 258 262 262 271 274 269 269 270 267 268 273 277 279 280 281 282 282 283 282 282 282 282
212 212 213 218 221 226 230 228 228 225 223 231 238 244 245 234 223 223 237 236 242 100 152 238 195 125 144 159 163 162 169 214 218 177 164 165 147 138 122 101 94 88 93 94 89 88 88 90 91 89 90 91 107 123 120 122 128 117 123 123 126 156 187 237 271 255 261 272 271 276 280 279 284 289 296 305 307 304 300 298 300 299 297 293 290
212 212 214 217 218 221 227 227 222 220 221 227 235 242 240 228 218 217 230 236 205 145 166 238 193 153 169 150 142 174 166 172 175 167 167 173 167 154 142 123 114 107 102 95 90 91 91 91 90 89 89 89 97 110 115 119 110 98 99 103 118 144 155 143 124 120 112 334 350 9 12 3 352 337 334 337 332 322 318 318 319 318 316 313 309
212 214 215 215 215 217 221 224 223 220 224 231 240 244 236 223 216 213 222 237 235 175 174 207 201 198 213 156 143 213 152 149 160 167 179 181 181 175 164 149 130 122 113 105 102 101 98 94 93 94 93 90 91 101 113 113 102 94 82 82 95 94 102 107 99 90 72 55 53 53 57 59 55 54 44 32 22 9 359 348 337 333 331 327 324
212 214 216 216 215 215 216 221 225 223 227 235 242 242 234 222 215 213 219 229 232 216 199 203 203 212 227 230 265 345 115 147 163 169 186 193 194 193 189 184 160 149 153 142 132 122 111 105 100 99 98 97 97 102 111 113 112 113 107 103 98 91 93 93 91 89 79 69 66 61 58 57 52 50 47 43 36 25 16 4 351 344 337 332 328
212 215 216 216 216 216 215 219 224 226 229 234 240 242 236 221 215 216 218 218 217 223 213 197 195 206 216 224 238 259 187 188 200 183 183 195 201 207 203 195 192 188 184 181 170 145 122 116 107 103 104 106 108 111 117 119 121 122 115 107 98 94 95 91 87 85 81 77 70 65 62 55 48 40 31 24 17 7 6 357 342 331 322 319 314
211 214 215 215 215 217 217 216 218 222 226 232 238 240 234 220 214 214 214 212 207 213 216 199 195 200 201 212 220 225 241 239 243 253 236 207 196 209 212 196 197 207 203 205 200 163 149 147 122 110 117 123 131 127 126 130 129 125 116 106 99 95 95 94 93 89 86 84 77 72 67 57 46 36 24 12 359 335 321 308 303 308 304 299 294
212 213 214 214 215 217 219 217 215 217 222 231 236 234 228 218 213 213 212 212 208 209 214 208 209 200 186 201 215 212 227 236 240 251 263 266 223 196 204 201 209 212 207 217 218 197 193 181 159 158 136 136 156 150 141 143 138 137 136 124 113 107 104 103 101 98 95 88 83 70 45 20 352 346 343 340 339 323 308 297 291 291 287 283 279
213 213 214 215 215 217 219 218 216 216 221 228 232 230 226 219 216 215 211 211 210 208 210 210 216 212 188 193 208 211 220 226 226 229 236 252 263 245 208 197 216 217 208 220 221 217 218 205 199 209 185 166 176 164 164 161 151 164 187 179 158 155 153 149 162 162 167 187 195 252 294 307 309 312 309 305 304 302 297 292 288 283 278 277 277
217 215 215 216 216 217 218 219 218 218 219 222 226 228 226 220 217 214 209 211 211 207 211 211 211 213 203 196 204 213 214 216 222 224 232 235 244 259 241 185 226 231 214 224 227 225 225 219 228 234 218 209 213 202 196 186 181 198 218 222 209 206 209 207 216 226 225 228 234 251 272 290 298 301 303 301 297 295 292 290 289 284 278 276 276
219 218 218 217 216 216 217 218 218 218 218 219 222 225 227 223 217 212 208 211 212 208 211 213 207 206 209 206 208 216 212 213 220 212 227 240 233 251 250 188 234 225 202 225 227 227 231 228 228 232 229 227 230 235 229 213 226 245 250 242 233 222 219 220 222 231 240 248 260 272 280 289 294 297 299 299 297 294 291 289 287 285 281 276 274
217 219 219 217 215 215 214 215 216 216 217 217 219 221 225 224 219 215 211 211 212 212 213 214 208 205 210 210 210 216 210 208 218 211 206 216 228 239 226 207 231 196 158 249 250 236 239 237 233 232 230 232 236 242 243 235 240 257 265 254 243 230 219 221 225 230 244 257 267 275 281 286 292 296 299 299 298 295 291 288 286 283 282 279 278
216 218 218 215 215 215 214 213 214 216 217 220 221 221 225 226 222 220 217 214 214 216 217 215 210 206 209 211 210 214 210 204 210 214 208 203 217 235 229 244 261 222 161 240 272 264 247 231 234 240 238 239 241 240 244 249 247 251 261 265 253 238 223 222 228 233 242 254 259 265 273 279 286 290 292 292 291 289 286 283 280 277 276 275 275
218 218 215 212 212 213 214 214 214 216 220 223 225 223 225 225 222 222 222 217 216 218 218 214 210 208 207 208 210 211 209 207 207 210 215 215 216 225 223 230 250 236 199 204 235 254 257 227 206 218 233 235 237 240 241 243 243 249 260 269 260 249 237 229 233 239 244 251 256 261 268 275 282 285 286 286 284 283 281 278 275 273 271 270 270
219 218 213 211 211 210 213 216 216 218 221 224 225 223 222 221 219 220 222 219 216 218 218 213 209 209 208 207 211 213 208 208 211 210 213 217 216 216 217 222 234 237 211 207 222 220 223 232 199 170 209 241 229 234 237 230 234 249 263 263 248 251 248 238 238 244 249 254 259 263 269 274 278 280 281 280 280 280 279 279 277 275 272 271 272
219 218 214 212 211 210 213 217 218 219 220 222 224 222 219 218 216 217 222 221 218 218 217 213 209 209 211 208 208 213 211 207 211 210 207 209 211 209 209 214 220 230 229 213 225 218 211 246 228 166 170 234 215 213 221 220 236 248 256 251 236 239 252 247 243 248 253 257 260 261 264 271 277 280 281 281 281 281 281 282 281 280 277 275 274
218 217 214 211 210 210 212 215 216 218 219 220 223 222 219 217 214 216 222 221 219 220 218 213 209 209 212 209 206 209 210 207 209 208 203 204 207 207 208 210 211 220 236 231 218 218 210 236 249 184 147 185 203 204 207 214 240 248 239 239 234 232 245 250 247 249 253 254 253 256 264 273 278 280 282 282 282 282 282 284 284 282 281 278 277
215 214 213 212 210 209 211 214 215 216 218 220 221 221 219 216 213 214 220 220 218 220 219 213 210 210 210 207 204 205 205 206 207 206 203 201 204 205 206 207 210 217 230 239 231 207 207 223 242 220 173 188 200 206 206 214 237 238 221 227 234 233 244 251 248 246 244 247 255 264 271 275 277 278 279 279 279 279 281 284 284 281 279 279 279
214 213 213 213 211 209 210 212 214 214 216 219 219 219 219 217 213 212 215 217 218 220 219 214 209 209 209 206 205 204 204 205 206 206 203 201 202 205 205 205 209 213 217 230 239 219 213 226 229 218 203 194 199 211 214 217 231 231 219 223 233 236 244 249 249 248 247 254 266 274 277 278 278 279 279 278 279 278 279 280 279 275 273 275 278
213 213 214 213 211 210 210 211 211 212 213 215 216 216 217 217 212 210 212 214 217 219 219 215 211 209 208 207 207 205 203 206 207 207 204 202 202 203 205 205 205 207 208 217 234 234 216 212 221 219 204 200 208 213 219 222 223 223 220 222 232 239 244 247 250 252 256 270 281 285 287 286 283 281 281 281 281 280 277 274 271 269 270 274 278
214 214 214 213 211 209 210 210 209 210 210 212 213 213 215 215 211 210 212 212 214 217 218 216 211 207 207 208 207 204 204 207 208 209 207 203 203 203 204 204 204 204 204 209 222 230 217 202 211 215 204 211 220 212 219 227 221 217 222 225 230 239 247 254 258 256 257 271 288 297 296 290 284 283 283 282 281 279 275 270 268 268 270 274 278
215 215 215 213 210 208 209 209 208 209 209 210 212 212 213 214 212 212 212 210 211 214 216 216 210 207 207 208 208 205 203 206 208 210 209 206 205 206 204 205 208 205 202 206 213 219 221 210 207 211 204 206 216 212 213 223 224 224 226 228 236 247 252 257 265 266 260 269 290 301 297 291 286 284 283 280 278 275 273 271 272 273 274 275 277
215 215 214 213 210 207 207 208 206 208 209 209 211 213 212 213 214 215 214 211 210 211 213 213 210 209 209 208 210 207 203 205 207 209 210 208 207 209 207 206 209 208 204 205 208 213 219 214 208 211 210 208 213 214 210 215 223 224 226 232 241 250 251 253 263 265 261 276 297 304 296 292 287 282 282 282 279 277 277 278 278 279 278 277 277
214 213 212 211 209 207 207 208 206 207 209 209 212 213 214 214 215 217 216 213 211 211 211 212 211 210 210 211 211 208 204 205 206 208 209 209 208 209 210 208 208 210 208 206 207 209 212 215 212 208 211 216 220 216 211 214 219 220 225 234 242 249 252 258 266 264 266 283 301 307 303 303 296 288 288 289 288 287 286 285 284 282 281 279 279
212 211 211 209 208 208 208 208 207 207 209 211 213 214 215 215 215 217 217 215 213 212 211 211 212 211 212 213 212 209 207 205 206 208 208 207 208 209 210 209 207 208 208 207 207 208 209 215 218 214 215 220 224 222 215 215 221 227 231 238 245 244 240 248 263 268 270 278 285 288 295 303 299 293 293 296 295 293 290 289 287 285 285 285 285
211 211 210 209 208 208 208 208 207 208 209 211 213 215 215 215 215 216 217 216 214 212 211 212 213 214 213 214 214 212 209 207 207 208 207 206 209 210 210 210 209 208 209 209 208 208 211 215 218 221 222 222 226 228 217 213 227 237 238 243 248 238 224 231 254 269 275 282 285 283 282 295 305 300 296 300 301 298 295 293 291 290 289 289 292
212 211 210 207 207 208 208 208 208 208 210 212 213 214 215 215 215 215 215 215 214 212 211 212 214 215 215 215 216 215 212 210 209 209 207 205 207 210 211 209 209 210 210 209 209 210 212 214 218 221 222 221 224 224 213 212 227 237 235 240 251 250 241 240 248 261 276 291 300 297 289 300 311 308 300 303 305 303 302 301 302 301 291 287 294
212 212 210 208 207 207 207 207 207 208 210 212 213 214 215 214 213 214 214 214 214 213 212 212 214 216 216 216 218 218 216 215 215 213 210 209 209 209 209 208 208 209 210 209 208 209 211 213 217 219 220 221 221 221 219 218 227 236 232 233 249 261 263 261 264 266 271 288 304 304 298 300 305 303 298 299 301 300 301 302 302 301 287 282 293
210 210 210 209 208 207 207 206 206 208 210 213 216 217 218 215 212 212 213 212 214 215 213 212 213 215 216 217 218 219 219 220 222 221 219 220 220 215 209 207 206 205 208 211 209 209 211 213 215 217 219 221 220 222 225 225 231 237 231 231 246 259 264 273 282 275 255 279 303 302 301 303 302 300 298 298 298 297 298 297 291 289 290 292 294
210 210 209 209 210 210 209 207 207 209 211 214 217 219 220 219 214 210 210 211 212 215 216 213 213 214 216 218 218 218 219 222 226 228 227 228 228 224 217 213 213 212 210 212 214 213 213 215 217 217 218 221 220 220 225 230 233 230 227 232 242 254 264 276 286 278 248 278 306 302 301 303 300 296 295 297 299 297 294 291 287 289 294 296 295
209 209 209 209 211 211 211 211 211 213 215 216 217 219 221 222 218 212 210 211 212 214 217 216 214 214 215 216 217 216 217 221 225 227 229 230 230 228 223 219 222 223 219 218 220 220 219 220 220 218 217 219 219 220 228 237 232 222 226 234 238 252 266 272 275 272 265 296 309 300 299 303 300 294 294 295 296 296 295 292 291 294 299 301 299
209 210 211 212 215 214 213 216 216 216 217 217 217 218 220 222 221 217 212 213 214 215 218 217 214 214 213 214 216 213 215 221 223 222 226 229 228 228 226 224 226 229 228 226 225 226 227 226 226 225 221 219 219 220 224 226 223 222 229 237 246 255 257 250 256 269 281 294 295 291 295 301 301 296 296 298 297 296 297 292 292 301 308 309 306
211 215 215 216 220 220 218 220 223 221 221 219 218 219 220 222 224 221 216 215 216 217 220 219 216 214 212 212 213 211 211 220 223 218 216 222 224 222 223 224 225 228 230 230 229 231 232 232 232 231 227 222 217 211 203 201 208 222 234 245 251 244 233 238 253 268 271 260 254 283 294 300 305 300 297 301 299 296 295 291 294 305 313 313 310
213 217 218 219 223 223 221 223 226 226 225 221 219 219 220 222 224 223 219 217 219 220 221 221 218 217 215 213 214 213 209 217 225 219 206 205 211 213 214 217 219 220 223 226 228 229 230 232 234 234 232 225 213 200 195 197 208 220 223 230 228 208 218 245 250 259 259 222 201 263 290 297 306 303 298 303 303 298 299 297 296 301 306 310 312
215 217 219 222 224 223 222 223 225 227 228 224 220 220 221 221 223 223 220 217 218 220 220 220 219 220 220 216 213 215 213 217 226 223 209 197 196 200 204 207 210 212 216 222 225 226 227 228 231 234 234 223 207 199 199 199 198 198 193 193 194 194 209 231 242 260 264 200 195 240 285 297 306 305 300 305 306 301 300 298 294 296 301 308 312
215 216 217 221 224 224 223 223 223 226 228 226 224 222 220 219 220 220 218 217 218 219 219 219 220 223 226 219 213 214 215 216 224 224 212 199 192 194 197 199 203 207 210 216 221 224 226 225 225 230 231 222 213 212 212 208 199 188 184 192 203 202 199 207 236 262 280 270 242 239 285 300 305 305 302 305 306 301 298 294 292 295 298 303 310
215 216 215 217 221 223 225 225 224 226 228 227 226 224 221 220 219 217 215 216 218 219 218 219 220 223 227 225 218 215 213 215 223 223 213 202 196 192 192 192 196 203 202 200 205 214 221 221 220 222 223 221 222 221 218 215 210 198 192 199 210 205 196 208 238 260 284 287 262 215 287 303 306 305 303 305 304 301 300 300 297 295 296 301 308
217 218 218 219 221 224 228 229 227 227 229 228 228 226 223 221 219 215 214 216 219 218 216 216 219 222 226 227 224 220 215 216 222 222 213 206 199 193 192 192 195 199 199 193 191 200 209 212 212 215 217 219 221 218 213 214 212 204 198 203 209 199 192 213 236 251 279 284 213 172 285 303 307 307 306 306 305 305 308 307 301 298 299 301 303